FW5165 Weather Reports


Display with metric or nautical units.
time (UTC)temp
F
wind
direction
speed
MPH
gust
MPH
rain 1hr
in
rain 24hr
in
rain mn
in
humidity
%
barometer
mb
20260508121041 58 161 0.0 2.0 0.00 0.00 0.00 93 1017.3
20260508120540 58 161 0.0 1.0 0.00 0.00 0.00 93 1017.3
20260508120047 58 161 0.0 1.0 0.00 0.00 0.00 93 1017.3
20260508115540 58 161 0.0 1.0 0.00 0.00 0.00 93 1017.2
20260508115038 58 161 0.0 1.0 0.00 0.00 0.00 93 1017.2
20260508114538 58 161 0.0 1.0 0.00 0.00 0.00 93 1017.2
20260508114038 58 161 0.0 1.0 0.00 0.00 0.00 93 1017.3
20260508113538 58 161 0.0 1.0 0.00 0.00 0.00 93 1017.2
20260508113039 58 161 0.0 1.0 0.00 0.00 0.00 93 1017.3
20260508112537 58 161 0.0 1.0 0.00 0.00 0.00 93 1017.2
20260508112037 58 161 0.0 1.0 0.00 0.00 0.00 93 1017.2
20260508111551 58 161 0.0 1.0 0.00 0.00 0.00 93 1017.2
20260508111037 58 161 0.0 1.0 0.00 0.00 0.00 93 1017.2
20260508110536 58 161 0.0 1.0 0.00 0.00 0.00 93 1017.2
20260508110042 58 161 0.0 0.0 0.00 0.00 0.00 92 1017.1
20260508105536 58 161 0.0 1.0 0.00 0.00 0.00 92 1017.1
20260508105034 58 161 0.0 1.0 0.00 0.00 0.00 92 1017.2
20260508104533 58 161 0.0 1.0 0.00 0.00 0.00 92 1017.2
20260508104032 58 161 0.0 1.0 0.00 0.00 0.00 92 1017.2
20260508103532 59 161 0.0 1.0 0.00 0.00 0.00 92 1017.2
20260508103039 59 161 0.0 1.0 0.00 0.00 0.00 92 1017.2
20260508102531 59 161 0.0 1.0 0.00 0.00 0.00 92 1017.2
20260508102030 59 161 0.0 1.0 0.00 0.00 0.00 92 1017.3
20260508101539 59 161 0.0 1.0 0.00 0.00 0.00 91 1017.3
20260508101030 59 161 0.0 1.0 0.00 0.00 0.00 91 1017.3
20260508100527 60 161 0.0 1.0 0.00 0.00 0.00 91 1017.3
20260508100029 60 161 0.0 1.0 0.00 0.00 0.00 91 1017.2
20260508095526 60 161 0.0 1.0 0.00 0.00 0.00 91 1017.2
20260508095026 60 161 0.0 1.0 0.00 0.00 0.00 91 1017.3
20260508094525 60 161 0.0 1.0 0.00 0.00 0.00 91 1017.3
20260508094025 60 161 0.0 1.0 0.00 0.00 0.00 90 1017.3
20260508093523 60 161 0.0 1.0 0.00 0.00 0.00 90 1017.3
20260508093023 61 161 0.0 1.0 0.00 0.00 0.00 90 1017.4
20260508092521 61 161 0.0 1.0 0.00 0.00 0.00 90 1017.2
20260508092021 61 161 0.0 1.0 0.00 0.00 0.00 89 1017.3
20260508091520 61 161 0.0 1.0 0.00 0.00 0.00 89 1017.2
20260508091020 61 161 0.0 1.0 0.00 0.00 0.00 89 1017.2
20260508090519 62 161 0.0 1.0 0.00 0.00 0.00 89 1017.2
20260508090019 62 161 0.0 2.0 0.00 0.00 0.00 88 1017.1
20260508085517 62 161 0.0 2.0 0.00 0.00 0.00 88 1017.2
20260508085016 62 161 0.0 1.0 0.00 0.00 0.00 88 1017.2
20260508084515 62 161 0.0 1.0 0.00 0.00 0.00 88 1017.1
20260508084018 63 161 0.0 1.0 0.00 0.00 0.00 88 1017.2
20260508083515 63 161 0.0 1.0 0.00 0.00 0.00 87 1017.2
20260508083014 63 161 0.0 0.0 0.00 0.00 0.00 87 1017.2
20260508082513 63 161 0.0 0.0 0.00 0.00 0.00 87 1017.2
20260508082013 63 161 0.0 0.0 0.00 0.00 0.00 86 1017.2
20260508081512 63 161 0.0 0.0 0.00 0.00 0.00 86 1017.2
20260508081014 64 161 0.0 0.0 0.00 0.00 0.00 86 1017.1
20260508080510 64 161 0.0 1.0 0.00 0.00 0.00 86 1017.0
20260508080012 64 161 0.0 2.0 0.00 0.00 0.00 85 1017.0
20260508075512 64 161 0.0 2.0 0.00 0.00 0.00 85 1017.0
20260508075008 64 161 0.0 0.0 0.00 0.00 0.00 85 1017.0
20260508074507 64 161 0.0 0.0 0.00 0.00 0.00 84 1017.0
20260508074006 65 161 0.0 0.0 0.00 0.00 0.00 84 1017.0
20260508073505 65 161 0.0 0.0 0.00 0.00 0.00 83 1016.9
20260508073004 66 161 0.0 0.0 0.00 0.00 0.00 82 1016.9
20260508072504 66 161 0.0 0.0 0.00 0.00 0.00 82 1016.9
20260508072002 66 161 0.0 0.0 0.00 0.00 0.00 81 1016.9
20260508071503 67 161 0.0 2.0 0.00 0.00 0.00 81 1016.9
20260508071100 67 161 0.0 4.0 0.00 0.00 0.00 81 1017.0
20260508070559 67 161 1.0 4.0 0.00 0.00 0.00 80 1016.9
20260508070058 68 107 0.0 4.0 0.00 0.00 0.00 79 1016.9
20260508065556 68 108 1.0 2.0 0.00 0.00 0.00 79 1016.8
20260508065056 68 109 1.0 2.0 0.00 0.00 0.00 79 1016.8
20260508064601 68 109 0.0 2.0 0.00 0.00 0.00 79 1016.9
20260508064056 68 109 0.0 4.0 0.00 0.00 0.00 79 1016.8
20260508063557 68 109 0.0 1.0 0.00 0.00 0.00 78 1016.8
20260508063056 68 109 0.0 4.0 0.00 0.00 0.00 78 1016.8
20260508062556 68 109 0.0 4.0 0.00 0.00 0.00 78 1016.9
20260508062056 69 111 1.0 4.0 0.00 0.00 0.00 78 1016.8
20260508061558 69 111 1.0 3.0 0.00 0.00 0.00 78 1016.9
20260508061056 69 153 1.0 2.0 0.00 0.00 0.00 77 1017.0
20260508060555 69 153 0.0 2.0 0.00 0.00 0.00 76 1016.9
20260508060056 69 153 0.0 2.0 0.00 0.00 0.00 76 1017.0
20260508055555 70 153 1.0 2.0 0.00 0.00 0.00 76 1017.0
20260508055055 70 153 0.0 2.0 0.00 0.00 0.00 76 1016.9
20260508054602 70 153 0.0 4.0 0.00 0.00 0.00 76 1016.9
20260508054056 70 154 0.0 5.0 0.00 0.00 0.00 76 1017.0
20260508053554 70 159 1.0 5.0 0.00 0.00 0.00 76 1016.9
20260508053055 70 155 0.0 6.0 0.00 0.00 0.00 76 1017.0
20260508052554 70 165 3.0 8.0 0.00 0.00 0.00 76 1016.9
20260508052053 70 148 0.0 6.0 0.00 0.00 0.00 77 1017.0
20260508051555 69 153 0.0 6.0 0.00 0.00 0.00 77 1017.0
20260508051053 69 156 4.0 6.0 0.00 0.00 0.00 77 1017.0
20260508050554 69 175 2.0 5.0 0.00 0.00 0.00 78 1017.0
20260508050055 69 146 1.0 5.0 0.00 0.00 0.00 78 1017.0
20260508045552 69 148 1.0 7.0 0.00 0.00 0.00 76 1017.0
20260508045052 71 210 3.0 6.0 0.00 0.00 0.00 72 1017.0
20260508044552 72 340 1.0 4.0 0.00 0.00 0.00 71 1016.9
20260508044054 73 340 1.0 5.0 0.00 0.00 0.00 71 1016.9
20260508043651 73 340 2.0 6.0 0.00 0.00 0.00 70 1016.8
20260508043059 73 340 3.0 5.0 0.00 0.00 0.00 69 1016.8
20260508042552 73 303 2.0 3.0 0.00 0.00 0.00 69 1016.8
20260508042052 74 303 1.0 2.0 0.00 0.00 0.00 69 1016.7
20260508041555 74 303 1.0 4.0 0.00 0.00 0.00 69 1016.7
20260508041051 74 303 3.0 4.0 0.00 0.00 0.00 69 1016.6
20260508040550 74 302 1.0 4.0 0.00 0.00 0.00 69 1016.6
20260508040049 74 302 2.0 3.0 0.00 0.00 0.00 69 1016.5
20260508035548 73 300 1.0 2.0 0.00 0.00 0.00 69 1016.4
20260508035048 73 300 0.0 2.0 0.00 0.00 0.00 69 1016.4
20260508034554 73 300 1.0 2.0 0.00 0.00 0.00 70 1016.3
20260508034047 74 300 1.0 2.0 0.00 0.00 0.00 70 1016.3
20260508033546 74 300 1.0 2.0 0.00 0.00 0.00 69 1016.3
20260508033046 74 300 1.0 2.0 0.00 0.00 0.00 69 1016.3
20260508032546 74 300 1.0 2.0 0.00 0.00 0.00 69 1016.2
20260508032046 74 300 1.0 2.0 0.00 0.00 0.00 69 1016.2
20260508031545 74 299 0.0 2.0 0.00 0.00 0.00 69 1016.2
20260508031045 74 312 1.0 2.0 0.00 0.00 0.00 69 1016.1
20260508030545 75 296 1.0 5.0 0.00 0.00 0.00 68 1016.1
20260508030047 75 287 2.0 5.0 0.00 0.00 0.00 66 1016.1
20260508025543 75 54 3.0 5.0 0.00 0.00 0.00 66 1016.0
20260508025043 76 322 3.0 4.0 0.00 0.00 0.00 66 1016.0
20260508024547 76 304 2.0 5.0 0.00 0.00 0.00 66 1016.0
20260508024046 77 304 3.0 5.0 0.00 0.00 0.00 65 1015.9
20260508023544 77 242 0.0 4.0 0.00 0.00 0.00 65 1015.9
20260508023042 78 251 0.0 1.0 0.00 0.00 0.00 65 1015.8
20260508022546 78 249 0.0 4.0 0.00 0.00 0.00 64 1015.9
20260508022042 78 265 0.0 3.0 0.00 0.00 0.00 64 1016.0
20260508021545 78 265 0.0 3.0 0.00 0.00 0.00 63 1015.9
20260508021041 78 251 2.0 3.0 0.00 0.00 0.00 63 1015.9
20260508020541 78 250 1.0 5.0 0.00 0.00 0.00 62 1015.9
20260508020041 78 250 1.0 5.0 0.00 0.00 0.00 63 1015.9
20260508015540 79 234 2.0 3.0 0.00 0.00 0.00 62 1015.9
20260508015040 79 236 2.0 5.0 0.00 0.00 0.00 61 1016.0
20260508014549 79 221 2.0 6.0 0.00 0.00 0.00 61 1016.0
20260508014043 79 217 4.0 6.0 0.00 0.00 0.00 61 1016.0
20260508013540 80 244 2.0 3.0 0.00 0.00 0.00 61 1016.0
20260508013044 79 252 2.0 6.0 0.00 0.00 0.00 60 1016.0
20260508012539 79 238 3.0 7.0 0.00 0.00 0.00 61 1015.9
20260508012040 79 213 2.0 7.0 0.00 0.00 0.00 61 1016.0
20260508011543 79 229 5.0 7.0 0.00 0.00 0.00 60 1016.0
20260508011038 79 223 4.0 6.0 0.00 0.00 0.00 60 1016.0
20260508010540 79 192 3.0 6.0 0.00 0.00 0.00 59 1016.0
20260508010037 79 181 4.0 7.0 0.00 0.00 0.00 59 1016.1
20260508005538 80 202 4.0 7.0 0.00 0.00 0.00 60 1016.2
20260508005036 80 149 3.0 6.0 0.00 0.00 0.00 60 1016.1
20260508004535 80 263 3.0 6.0 0.00 0.00 0.00 60 1016.2
20260508004035 79 263 3.0 7.0 0.00 0.00 0.00 60 1016.3
20260508003535 79 199 1.0 5.0 0.00 0.00 0.00 61 1016.4
20260508003052 79 179 2.0 7.0 0.00 0.00 0.00 59 1016.4
20260508002533 79 229 3.0 7.0 0.00 0.00 0.00 60 1016.4
20260508002034 79 221 3.0 7.0 0.00 0.00 0.00 59 1016.5
20260508001532 79 223 2.0 7.0 0.00 0.00 0.00 60 1016.5
20260508001032 80 231 5.0 7.0 0.00 0.00 0.00 58 1016.5
20260508000532 80 225 1.0 7.0 0.00 0.00 0.00 59 1016.6
20260508000032 80 233 4.0 7.0 0.00 0.00 0.00 60 1016.5
20260507235531 80 257 1.0 8.0 0.00 0.00 0.00 60 1016.5
20260507235030 81 265 2.0 6.0 0.00 0.00 0.00 60 1016.4
20260507234632 80 280 1.0 5.0 0.00 0.00 0.00 59 1016.6
20260507234030 79 225 1.0 6.0 0.00 0.00 0.00 61 1016.6
20260507233528 79 164 2.0 8.0 0.00 0.00 0.00 60 1016.6
20260507233033 80 227 4.0 8.0 0.00 0.00 0.00 59 1016.6
20260507232527 79 262 0.0 8.0 0.00 0.00 0.00 61 1016.7
20260507232026 79 207 4.0 8.0 0.00 0.00 0.00 61 1016.7
20260507231529 79 208 0.0 8.0 0.00 0.00 0.00 59 1016.7
20260507231028 79 250 4.0 8.0 0.00 0.00 0.00 61 1016.8
20260507230525 79 229 1.0 8.0 0.00 0.00 0.00 61 1016.9
20260507230024 79 271 4.0 8.0 0.00 0.00 0.00 60 1016.9
20260507225526 80 248 2.0 6.0 0.00 0.00 0.00 60 1017.0
20260507225022 79 282 0.0 7.0 0.00 0.00 0.00 60 1017.1
20260507224522 79 327 3.0 7.0 0.00 0.00 0.00 60 1017.1
20260507224020 79 267 2.0 8.0 0.00 0.00 0.00 60 1017.2
20260507223519 79 281 2.0 8.0 0.00 0.00 0.00 62 1017.3
20260507223018 78 199 4.0 8.0 0.00 0.00 0.00 62 1017.4
20260507222517 78 304 3.0 9.0 0.00 0.00 0.00 62 1017.5
20260507222016 77 271 4.0 9.0 0.00 0.00 0.00 63 1017.7
20260507221516 78 270 6.0 8.0 0.00 0.00 0.00 63 1017.7
20260507221015 78 302 3.0 8.0 0.00 0.00 0.00 63 1017.8
20260507220516 78 261 5.0 8.0 0.00 0.00 0.00 64 1017.8
20260507220013 78 245 5.0 10.0 0.00 0.00 0.00 64 1017.8
20260507215514 78 211 6.0 10.0 0.00 0.00 0.00 63 1017.9
20260507215010 78 319 1.0 9.0 0.00 0.00 0.00 64 1018.0
20260507214509 77 288 2.0 9.0 0.00 0.00 0.00 65 1018.1
20260507214008 77 265 3.0 7.0 0.00 0.00 0.00 66 1018.2
20260507213507 76 223 4.0 8.0 0.00 0.00 0.00 66 1018.3
20260507213011 76 214 6.0 9.0 0.00 0.00 0.00 65 1018.3
20260507212505 76 215 6.0 9.0 0.00 0.00 0.00 66 1018.4
20260507212005 76 317 2.0 8.0 0.00 0.00 0.00 66 1018.4
20260507211503 76 227 2.0 9.0 0.00 0.00 0.00 66 1018.6
20260507211002 76 231 4.0 9.0 0.00 0.00 0.00 67 1018.6
20260507210501 75 215 5.0 9.0 0.00 0.00 0.00 69 1018.6
20260507210001 75 228 6.0 9.0 0.00 0.00 0.00 66 1018.7
20260507205501 75 235 4.0 10.0 0.00 0.00 0.00 68 1018.7
20260507205100 75 224 6.0 10.0 0.00 0.00 0.00 68 1018.7
20260507204606 75 271 4.0 7.0 0.00 0.00 0.00 68 1018.8
20260507204100 75 268 1.0 7.0 0.00 0.00 0.00 67 1018.7
20260507203559 76 269 3.0 7.0 0.00 0.00 0.00 66 1018.8
20260507203106 75 310 2.0 7.0 0.00 0.00 0.00 68 1018.7
20260507202556 75 273 2.0 8.0 0.00 0.00 0.00 69 1018.8
20260507202055 75 238 1.0 6.0 0.00 0.00 0.00 69 1019.0
20260507201610 74 167 1.0 5.0 0.00 0.00 0.00 69 1019.1
20260507201053 73 261 1.0 10.0 0.00 0.00 0.00 71 1019.2
20260507200552 73 273 6.0 10.0 0.00 0.00 0.00 70 1019.2
20260507200100 73 264 3.0 10.0 0.00 0.00 0.00 71 1019.2
20260507195554 72 269 3.0 10.0 0.00 0.00 0.00 72 1019.3
20260507195050 72 248 1.0 9.0 0.00 0.00 0.00 73 1019.4
20260507194554 72 283 4.0 9.0 0.00 0.00 0.00 71 1019.4
20260507194049 72 273 2.0 10.0 0.00 0.00 0.00 72 1019.4
20260507193549 72 211 5.0 10.0 0.00 0.00 0.00 72 1019.5
20260507193050 73 209 4.0 9.0 0.00 0.00 0.00 72 1019.5
20260507192548 73 217 2.0 7.0 0.00 0.00 0.00 71 1019.5
20260507192048 72 340 2.0 7.0 0.00 0.00 0.00 72 1019.5
20260507191551 71 275 3.0 8.0 0.00 0.00 0.00 73 1019.6
20260507191047 71 231 5.0 8.0 0.00 0.00 0.00 74 1019.6
20260507190548 70 256 3.0 12.0 0.00 0.00 0.00 75 1019.6
20260507190046 70 278 5.0 11.0 0.00 0.00 0.00 74 1019.7
20260507185546 70 242 6.0 9.0 0.00 0.00 0.00 74 1019.6
20260507185045 71 229 6.0 10.0 0.00 0.00 0.00 73 1019.7
20260507184547 71 223 7.0 10.0 0.00 0.00 0.00 72 1019.8
20260507184048 71 281 2.0 9.0 0.00 0.00 0.00 73 1019.8
20260507183544 71 273 4.0 9.0 0.00 0.00 0.00 73 1019.8
20260507183045 71 267 3.0 7.0 0.00 0.00 0.00 72 1019.8
20260507182543 71 309 2.0 9.0 0.00 0.00 0.00 74 1019.8
20260507182042 70 340 4.0 9.0 0.00 0.00 0.00 75 1019.9
20260507181541 69 280 5.0 9.0 0.00 0.00 0.00 74 1019.9
20260507181041 69 245 3.0 10.0 0.00 0.00 0.00 76 1019.9
20260507180544 69 263 5.0 10.0 0.00 0.00 0.00 74 1019.9
20260507180045 69 246 3.0 7.0 0.00 0.00 0.00 75 1019.9
20260507175540 69 269 3.0 7.0 0.00 0.00 0.00 76 1019.9
20260507175039 68 240 5.0 7.0 0.00 0.00 0.00 76 1019.9
20260507174540 69 218 4.0 9.0 0.00 0.00 0.00 75 1019.9
20260507174038 69 261 2.0 9.0 0.00 0.00 0.00 77 1020.0
20260507173537 69 254 2.0 8.0 0.00 0.00 0.00 77 1020.0
20260507173037 68 261 4.0 8.0 0.00 0.00 0.00 78 1020.0
20260507172537 68 276 3.0 8.0 0.00 0.00 0.00 77 1020.0
20260507172036 68 254 1.0 8.0 0.00 0.00 0.00 78 1019.9
20260507171536 68 278 5.0 8.0 0.00 0.00 0.00 78 1019.9
20260507171035 68 224 3.0 9.0 0.00 0.00 0.00 79 1020.0
20260507170537 67 237 4.0 9.0 0.00 0.00 0.00 79 1019.9
20260507170032 67 244 1.0 7.0 0.00 0.00 0.00 79 1020.0
20260507165534 67 228 1.0 7.0 0.00 0.00 0.00 80 1019.9
20260507165031 67 232 4.0 6.0 0.00 0.00 0.00 80 1020.0
20260507164530 66 238 2.0 6.0 0.00 0.00 0.00 79 1020.0
20260507164030 66 259 3.0 6.0 0.00 0.00 0.00 79 1019.9
20260507163529 66 302 1.0 6.0 0.00 0.00 0.00 80 1020.1
20260507163029 66 294 3.0 6.0 0.00 0.00 0.00 80 1020.1
20260507162534 66 273 0.0 4.0 0.00 0.00 0.00 81 1020.1
20260507162030 65 309 0.0 5.0 0.00 0.00 0.00 81 1020.1
20260507161527 65 275 0.0 5.0 0.00 0.00 0.00 81 1020.1
20260507161026 65 349 2.0 5.0 0.00 0.00 0.00 81 1020.2
20260507160525 65 351 0.0 5.0 0.00 0.00 0.00 83 1020.3
20260507160025 64 351 1.0 4.0 0.00 0.00 0.00 83 1020.1
20260507155524 64 38 0.0 2.0 0.00 0.00 0.00 83 1020.2
20260507155021 63 30 0.0 4.0 0.00 0.00 0.00 84 1020.3
20260507154521 63 113 0.0 3.0 0.00 0.00 0.00 85 1020.1
20260507154019 62 162 0.0 5.0 0.00 0.00 0.00 86 1020.3
20260507153519 62 198 3.0 5.0 0.00 0.00 0.00 86 1020.2
20260507153023 61 245 1.0 4.0 0.00 0.00 0.00 87 1020.2
20260507152519 61 258 1.0 3.0 0.00 0.00 0.00 87 1020.3
20260507152019 61 302 2.0 4.0 0.00 0.00 0.00 87 1020.1
20260507151519 61 338 2.0 3.0 0.00 0.00 0.00 88 1020.1
20260507151018 60 338 2.0 4.0 0.00 0.00 0.00 88 1020.2
20260507150518 60 324 1.0 3.0 0.00 0.00 0.00 88 1020.2
20260507150018 60 318 1.0 4.0 0.00 0.00 0.00 89 1020.2
20260507145516 59 26 0.0 2.0 0.00 0.00 0.00 90 1020.2
20260507145016 59 26 0.0 2.0 0.00 0.00 0.00 90 1020.2
20260507144516 59 40 0.0 4.0 0.00 0.00 0.00 90 1020.2
20260507144016 58 355 1.0 3.0 0.00 0.00 0.00 90 1020.1
20260507143515 58 59 1.0 2.0 0.00 0.00 0.00 90 1020.0
20260507143015 58 18 0.0 1.0 0.00 0.00 0.00 90 1019.9
20260507142515 58 53 0.0 1.0 0.00 0.00 0.00 91 1019.9
20260507142014 57 297 0.0 2.0 0.00 0.00 0.00 90 1019.9
20260507141515 57 314 0.0 2.0 0.00 0.00 0.00 90 1019.9
20260507141014 57 16 0.0 1.0 0.00 0.00 0.00 90 1019.9
20260507140514 57 57 0.0 2.0 0.00 0.00 0.00 90 1019.9
20260507140024 57 65 0.0 2.0 0.00 0.00 0.00 90 1019.8
20260507135513 57 116 0.0 1.0 0.00 0.00 0.00 89 1019.7
20260507135013 57 360 0.0 2.0 0.00 0.00 0.00 90 1019.7
20260507134513 57 360 1.0 2.0 0.00 0.00 0.00 90 1019.8
20260507134012 57 9 0.0 2.0 0.00 0.00 0.00 90 1019.6
20260507133515 57 87 0.0 1.0 0.00 0.00 0.00 89 1019.6
20260507133012 57 53 0.0 1.0 0.00 0.00 0.00 89 1019.6
20260507132511 57 53 0.0 2.0 0.00 0.00 0.00 89 1019.6
20260507132011 57 52 0.0 2.0 0.00 0.00 0.00 89 1019.5
20260507131511 57 53 0.0 4.0 0.00 0.00 0.00 89 1019.5
20260507131011 57 15 1.0 4.0 0.00 0.00 0.00 89 1019.5
20260507130510 57 82 0.0 2.0 0.00 0.00 0.00 89 1019.5
20260507130010 57 144 0.0 2.0 0.00 0.00 0.00 89 1019.4
20260507125510 57 184 0.0 2.0 0.00 0.00 0.00 89 1019.5
20260507125011 57 137 0.0 4.0 0.00 0.00 0.00 89 1019.4
20260507124514 57 144 1.0 3.0 0.00 0.00 0.00 88 1019.4
20260507124012 58 144 0.0 1.0 0.00 0.00 0.00 88 1019.5
20260507123507 58 144 0.0 1.0 0.00 0.00 0.00 87 1019.4
20260507123006 58 144 0.0 2.0 0.00 0.00 0.00 87 1019.3
20260507122507 58 144 0.0 4.0 0.00 0.00 0.00 87 1019.3
20260507122004 59 144 1.0 4.0 0.00 0.00 0.00 86 1019.3
20260507121504 59 101 0.0 2.0 0.00 0.00 0.00 86 1019.3